FW6490 Weather Reports


time (UTC)temp
C
wind
direction
speed
KPH
gust
KPH
rain 1hr
cm
rain 24hr
cm
rain mn
cm
humidity
%
barometer
mb
20260510050139 11 331 1.6 4.8 0.00 0.00 0.00 90 1008.4
20260510045633 11 331 0.0 4.8 0.00 0.00 0.00 90 1008.4
20260510045130 11 331 0.0 3.2 0.00 0.00 0.00 90 1008.4
20260510044630 11 331 0.0 3.2 0.00 0.00 0.00 90 1008.4
20260510043630 11 331 0.0 3.2 0.00 0.00 0.00 90 1008.4
20260510042118 12 331 0.0 3.2 0.00 0.00 0.00 89 1008.4
20260510041617 12 331 0.0 3.2 0.00 0.00 0.00 89 1008.4
20260510040608 12 331 0.0 4.8 0.00 0.00 0.00 88 1008.4
20260510040110 12 331 0.0 4.8 0.00 0.00 0.00 88 1008.4
20260510035609 12 331 0.0 3.2 0.00 0.00 0.00 87 1008.4
20260510035106 12 331 0.0 3.2 0.00 0.00 0.00 87 1008.4
20260510034603 12 331 0.0 3.2 0.00 0.00 0.00 87 1008.4
20260510034106 12 331 0.0 4.8 0.00 0.00 0.00 87 1008.3
20260510033601 12 331 0.0 4.8 0.00 0.00 0.00 87 1008.3
20260510032051 13 331 3.2 9.7 0.00 0.00 0.00 86 1008.0
20260510031548 13 319 3.2 9.7 0.00 0.00 0.00 85 1008.0
20260510031047 13 319 1.6 6.4 0.00 0.00 0.00 85 1007.5
20260510030544 13 317 1.6 9.7 0.00 0.00 0.00 85 1007.5
20260510030043 13 317 1.6 9.7 0.00 0.00 0.00 85 1007.5
20260510025540 13 317 3.2 11.3 0.00 0.00 0.00 84 1007.5
20260510025042 13 317 4.8 11.3 0.00 0.00 0.00 84 1007.5
20260510023538 13 321 3.2 6.4 0.00 0.00 0.00 82 1007.5
20260510023037 14 321 4.8 8.0 0.00 0.00 0.00 82 1007.5
20260510022536 14 320 3.2 8.0 0.00 0.00 0.00 81 1007.4
20260510021535 15 321 4.8 9.7 0.00 0.00 0.00 80 1007.4
20260510021034 15 320 3.2 8.0 0.00 0.00 0.00 79 1007.4
20260510020531 15 320 3.2 9.7 0.00 0.00 0.00 78 1007.4
20260510020033 15 320 4.8 11.3 0.00 0.00 0.00 77 1007.4
20260510015529 15 323 4.8 11.3 0.00 0.00 0.00 77 1007.4
20260510015028 16 322 6.4 14.5 0.00 0.00 0.00 77 1007.4
20260510014021 16 313 6.4 17.7 0.00 0.00 0.00 77 1007.4
20260510013521 16 304 6.4 17.7 0.00 0.00 0.00 76 1007.4
20260510013017 16 342 6.4 17.7 0.00 0.00 0.00 76 1007.4
20260510012515 16 301 8.0 17.7 0.00 0.00 0.00 76 1007.4
20260510011513 16 314 8.0 14.5 0.00 0.00 0.00 75 1007.4
20260510011007 16 316 8.0 19.3 0.00 0.00 0.00 75 1007.4
20260510010510 16 318 8.0 19.3 0.00 0.00 0.00 74 1007.4
20260510010004 16 319 8.0 17.7 0.00 0.00 0.00 74 1007.4
20260510005500 16 288 9.7 16.1 0.00 0.00 0.00 73 1007.4
20260510003455 18 302 8.0 16.1 0.00 0.00 0.00 70 1007.4
20260510002954 18 324 6.4 16.1 0.00 0.00 0.00 68 1007.4
20260510002453 18 315 8.0 14.5 0.00 0.00 0.00 69 1007.3
20260510001454 18 318 9.7 24.1 0.00 0.00 0.00 68 1007.3
20260510000951 18 301 8.0 19.3 0.00 0.00 0.00 69 1007.3
20260510000448 18 342 8.0 19.3 0.00 0.00 0.00 68 1007.3
20260509235948 18 338 9.7 20.9 0.00 0.00 0.00 68 1007.3
20260509235445 18 314 9.7 20.9 0.00 0.00 0.00 66 1007.3
20260509234944 19 319 8.0 19.3 0.00 0.00 0.00 66 1007.3
20260509234442 19 43 9.7 17.7 0.00 0.00 0.00 67 1007.3
20260509233443 19 326 9.7 19.3 0.00 0.00 0.00 67 1007.1
20260509232938 19 316 11.3 20.9 0.00 0.00 0.00 67 1007.1
20260509232435 19 337 11.3 20.9 0.00 0.00 0.00 66 1007.0
20260509231933 19 44 11.3 20.9 0.00 0.00 0.00 67 1007.0
20260509231429 19 309 9.7 20.9 0.00 0.00 0.00 65 1007.0
20260509230929 20 302 9.7 20.9 0.00 0.00 0.00 66 1007.0
20260509230432 19 330 9.7 22.5 0.00 0.00 0.00 66 1007.0
20260509225931 20 292 9.7 22.5 0.00 0.00 0.00 65 1007.0
20260509225426 19 308 9.7 20.9 0.00 0.00 0.00 66 1007.1
20260509224924 19 334 11.3 20.9 0.00 0.00 0.00 67 1007.1
20260509223922 19 306 11.3 24.1 0.00 0.00 0.00 66 1007.4
20260509223421 20 323 11.3 24.1 0.00 0.00 0.00 66 1007.4
20260509222918 19 297 11.3 20.9 0.00 0.00 0.00 66 1007.4
20260509222418 20 315 9.7 22.5 0.00 0.00 0.00 65 1007.5
20260509221915 19 322 11.3 25.7 0.00 0.00 0.00 66 1007.5
20260509220414 20 316 11.3 20.9 0.00 0.00 0.00 65 1007.5
20260509215913 20 340 11.3 22.5 0.00 0.00 0.00 64 1007.6
20260509214909 21 321 9.7 20.9 0.00 0.00 0.00 64 1007.6
20260509214406 20 324 11.3 20.9 0.00 0.00 0.00 65 1007.8
20260509213901 20 328 11.3 22.5 0.00 0.00 0.00 65 1007.8
20260509212858 20 322 9.7 22.5 0.00 0.00 0.00 63 1007.7
20260509211858 21 318 9.7 19.3 0.00 0.00 0.00 63 1007.7
20260509211358 21 281 9.7 19.3 0.00 0.00 0.00 63 1007.9
20260509210357 21 310 9.7 20.9 0.00 0.00 0.00 62 1007.9
20260509205852 21 321 9.7 20.9 0.00 0.00 0.00 62 1008.0
20260509205353 21 286 9.7 19.3 0.00 0.00 0.00 63 1008.0
20260509204851 21 323 9.7 19.3 0.00 0.00 0.00 63 1008.0
20260509204347 21 0 9.7 19.3 0.00 0.00 0.00 62 1008.0
20260509203344 21 0 8.0 16.1 0.00 0.00 0.00 62 1008.0
20260509202846 21 29 6.4 16.1 0.00 0.00 0.00 62 1008.1
20260509202344 21 326 6.4 16.1 0.00 0.00 0.00 63 1008.1
20260509201342 21 321 6.4 16.1 0.00 0.00 0.00 63 1008.3
20260509200840 21 311 6.4 16.1 0.00 0.00 0.00 63 1008.3
20260509200340 21 322 8.0 16.1 0.00 0.00 0.00 65 1008.3
20260509195837 21 327 6.4 16.1 0.00 0.00 0.00 63 1008.4
20260509195337 21 346 6.4 17.7 0.00 0.00 0.00 64 1008.4
20260509194835 20 329 8.0 17.7 0.00 0.00 0.00 66 1008.4
20260509193828 20 342 8.0 17.7 0.00 0.00 0.00 67 1008.6
20260509193327 20 327 6.4 16.1 0.00 0.00 0.00 68 1008.6
20260509192320 19 327 8.0 19.3 0.00 0.00 0.00 70 1008.6
20260509191820 19 311 9.7 19.3 0.00 0.00 0.00 69 1008.6
20260509191320 19 340 11.3 19.3 0.00 0.00 0.00 69 1008.7
20260509190318 20 345 9.7 16.1 0.00 0.00 0.00 67 1008.7
20260509185812 19 348 9.7 17.7 0.00 0.00 0.00 67 1008.6
20260509185313 20 319 9.7 20.9 0.00 0.00 0.00 66 1008.6
20260509184814 20 319 8.0 20.9 0.00 0.00 0.00 67 1008.6
20260509184314 20 303 8.0 16.1 0.00 0.00 0.00 67 1008.6
20260509183809 21 313 8.0 14.5 0.00 0.00 0.00 65 1008.6
20260509183307 21 307 6.4 11.3 0.00 0.00 0.00 65 1008.6
20260509181757 22 317 4.8 12.9 0.00 0.00 0.00 63 1008.7
20260509181254 22 294 4.8 12.9 0.00 0.00 0.00 64 1009.0
20260509180249 22 323 3.2 11.3 0.00 0.00 0.00 62 1009.0
20260509175248 22 336 0.0 8.0 0.00 0.00 0.00 64 1009.0
20260509174751 22 9 0.0 8.0 0.00 0.00 0.00 64 1009.0
20260509174244 21 5 0.0 8.0 0.00 0.00 0.00 66 1009.0
20260509173741 21 5 0.0 6.4 0.00 0.00 0.00 67 1009.0
20260509173240 21 355 0.0 6.4 0.00 0.00 0.00 69 1009.0
20260509172740 20 5 0.0 4.8 0.00 0.00 0.00 71 1009.0
20260509172240 19 5 0.0 1.6 0.00 0.00 0.00 74 1009.0
20260509171742 18 59 0.0 1.6 0.00 0.00 0.00 76 1009.0
20260509171241 18 65 0.0 1.6 0.00 0.00 0.00 76 1009.1
20260509170739 18 65 0.0 0.0 0.00 0.00 0.00 77 1009.1
20260509170235 17 65 0.0 0.0 0.00 0.00 0.00 77 1009.1
20260509165738 17 65 0.0 0.0 0.00 0.00 0.00 79 1009.1
20260509165237 16 59 0.0 0.0 0.00 0.00 0.00 83 1009.1
20260509164732 16 58 0.0 0.0 0.00 0.00 0.00 85 1009.1
20260509164228 15 58 0.0 0.0 0.00 0.00 0.00 87 1009.2
20260509163225 14 57 0.0 0.0 0.00 0.00 0.00 92 1009.2
20260509162723 13 0 0.0 0.0 0.00 0.00 0.00 94 1009.4
20260509162219 13 0 0.0 0.0 0.00 0.00 0.00 95 1009.4
20260509161213 12 355 0.0 0.0 0.00 0.00 0.00 96 1009.3
20260509160712 12 355 0.0 0.0 0.00 0.00 0.00 96 1009.3
20260509160206 12 346 0.0 0.0 0.00 0.00 0.00 97 1009.3
20260509155704 11 329 0.0 0.0 0.00 0.00 0.00 96 1009.3
20260509155204 11 329 0.0 0.0 0.00 0.00 0.00 96 1009.3
20260509154209 11 329 0.0 0.0 0.00 0.00 0.00 97 1009.5
20260509153704 11 329 0.0 0.0 0.00 0.00 0.00 96 1009.5
20260509152701 11 329 0.0 0.0 0.00 0.00 0.00 96 1009.4
20260509152201 10 329 0.0 3.2 0.00 0.00 0.00 96 1009.4
20260509151159 10 329 0.0 3.2 0.00 0.00 0.00 96 1009.3
20260509150658 10 329 0.0 3.2 0.00 0.00 0.00 96 1009.3
20260509145655 10 329 1.6 3.2 0.00 0.00 0.00 96 1009.4
20260509145149 10 329 1.6 4.8 0.00 0.00 0.00 96 1009.4
20260509143643 10 329 1.6 4.8 0.00 0.00 0.00 96 1009.4
20260509143140 10 329 1.6 4.8 0.00 0.00 0.00 96 1009.4
20260509142640 10 329 1.6 4.8 0.00 0.00 0.00 96 1009.5
20260509142142 10 329 1.6 4.8 0.00 0.00 0.00 96 1009.5
20260509141636 10 329 0.0 3.2 0.00 0.00 0.00 96 1009.5
20260509140635 10 330 0.0 0.0 0.00 0.00 0.00 96 1009.5
20260509140131 10 331 0.0 3.2 0.00 0.00 0.00 96 1009.5
20260509135632 9 330 1.6 4.8 0.00 0.00 0.00 96 1009.5
20260509135125 9 331 1.6 4.8 0.00 0.00 0.00 96 1009.5
20260509134625 9 330 1.6 4.8 0.00 0.00 0.00 95 1009.5
20260509134124 10 330 0.0 3.2 0.00 0.00 0.00 95 1009.2
20260509133623 10 330 0.0 1.6 0.00 0.00 0.00 95 1009.2
20260509133117 10 330 0.0 1.6 0.00 0.00 0.00 95 1009.2
20260509132615 10 330 0.0 1.6 0.00 0.00 0.00 96 1009.0
20260509132116 10 329 0.0 0.0 0.00 0.00 0.00 96 1009.0
20260509131110 10 329 0.0 0.0 0.00 0.00 0.00 95 1008.9
20260509130609 10 329 0.0 0.0 0.00 0.00 0.00 95 1008.9
20260509125604 10 329 0.0 0.0 0.00 0.00 0.00 95 1008.5
20260509125105 10 329 0.0 0.0 0.00 0.00 0.00 95 1008.5
20260509124600 10 329 0.0 0.0 0.00 0.00 0.00 95 1008.5
20260509123558 10 329 0.0 0.0 0.00 0.00 0.00 95 1008.6
20260509123056 10 329 0.0 0.0 0.00 0.00 0.00 95 1008.6
20260509122549 10 329 0.0 0.0 0.00 0.00 0.00 95 1008.6
20260509122046 10 329 0.0 4.8 0.00 0.00 0.00 95 1008.6
20260509121050 10 329 0.0 1.6 0.00 0.00 0.00 95 1008.9
20260509120541 10 329 0.0 4.8 0.00 0.00 0.00 95 1008.9
20260509120041 10 329 1.6 4.8 0.00 0.00 0.00 95 1008.9
20260509115538 10 329 0.0 3.2 0.00 0.00 0.00 95 1008.9
20260509115034 10 329 0.0 1.6 0.00 0.00 0.00 95 1008.9
20260509114032 10 329 1.6 3.2 0.00 0.00 0.00 94 1008.9
20260509113528 10 329 0.0 3.2 0.00 0.00 0.00 95 1008.9
20260509113030 10 329 0.0 3.2 0.00 0.00 0.00 95 1008.9
20260509110520 10 329 0.0 4.8 0.00 0.00 0.00 94 1009.1
20260509105515 10 329 0.0 4.8 0.00 0.00 0.00 94 1009.1
20260509105007 10 329 1.6 4.8 0.00 0.00 0.00 94 1009.1
20260509104507 10 329 1.6 4.8 0.00 0.00 0.00 94 1009.1
20260509104011 10 329 1.6 4.8 0.00 0.00 0.00 94 1009.3
20260509103511 10 329 0.0 0.0 0.00 0.00 0.00 94 1009.3
20260509103001 10 329 0.0 0.0 0.00 0.00 0.00 94 1009.3
20260509102459 10 329 0.0 0.0 0.00 0.00 0.00 94 1009.2
20260509101959 10 329 0.0 0.0 0.00 0.00 0.00 94 1009.2
20260509101457 10 329 0.0 0.0 0.00 0.00 0.00 94 1009.2
20260509100952 10 329 0.0 0.0 0.00 0.00 0.00 93 1009.4
20260509095954 11 329 0.0 0.0 0.00 0.00 0.00 93 1009.4
20260509095448 11 329 0.0 0.0 0.00 0.00 0.00 94 1009.4
20260509094947 11 329 0.0 0.0 0.00 0.00 0.00 94 1009.4
20260509094441 10 329 0.0 0.0 0.00 0.00 0.00 94 1009.4
20260509093934 10 329 0.0 0.0 0.00 0.00 0.00 93 1009.5
20260509093431 10 329 0.0 0.0 0.00 0.00 0.00 93 1009.5
20260509092928 10 329 0.0 3.2 0.00 0.00 0.00 93 1009.5
20260509092424 11 329 0.0 3.2 0.00 0.00 0.00 93 1009.4
20260509091923 11 329 0.0 3.2 0.00 0.00 0.00 93 1009.4
20260509091419 11 329 0.0 3.2 0.00 0.00 0.00 93 1009.4
20260509090923 11 329 0.0 1.6 0.00 0.00 0.00 93 1009.5
20260509090423 11 329 0.0 1.6 0.00 0.00 0.00 93 1009.5
20260509085913 11 329 0.0 3.2 0.00 0.00 0.00 93 1009.5
20260509085413 11 329 0.0 3.2 0.00 0.00 0.00 93 1009.5
20260509084908 10 329 0.0 3.2 0.00 0.00 0.00 93 1009.5
20260509083905 10 329 0.0 0.0 0.00 0.00 0.00 93 1009.7
20260509083405 10 329 0.0 0.0 0.00 0.00 0.00 93 1009.7
20260509082405 10 329 0.0 3.2 0.00 0.00 0.00 92 1009.8
20260509081401 10 329 0.0 3.2 0.00 0.00 0.00 93 1009.8
20260509080353 11 329 1.6 4.8 0.00 0.00 0.00 92 1009.8
20260509075853 11 329 1.6 4.8 0.00 0.00 0.00 92 1009.9
20260509075352 11 329 1.6 4.8 0.00 0.00 0.00 92 1009.9
20260509074849 11 329 1.6 6.4 0.00 0.00 0.00 92 1009.9
20260509074346 11 329 0.0 6.4 0.00 0.00 0.00 92 1009.9
20260509073842 11 329 1.6 6.4 0.00 0.00 0.00 92 1009.9
20260509073347 11 329 1.6 6.4 0.00 0.00 0.00 91 1009.9
20260509072842 11 329 1.6 4.8 0.00 0.00 0.00 91 1010.0
20260509072340 11 329 1.6 4.8 0.00 0.00 0.00 91 1010.0
20260509071840 11 329 1.6 4.8 0.00 0.00 0.00 91 1010.0
20260509071339 11 329 1.6 4.8 0.00 0.00 0.00 91 1010.0
20260509070840 11 329 1.6 4.8 0.00 0.00 0.00 91 1010.0
20260509070339 11 329 0.0 3.2 0.00 0.00 0.00 91 1010.0
20260509065843 11 329 0.0 3.2 0.00 0.00 0.00 91 1010.1
20260509064840 11 329 1.6 4.8 0.00 0.00 0.00 91 1010.1
20260509064334 11 329 1.6 4.8 0.00 0.00 0.00 91 1010.2
20260509063836 11 329 0.0 4.8 0.00 0.00 0.00 91 1010.2
20260509062830 12 329 0.0 3.2 0.00 0.00 0.00 91 1010.5
20260509062327 12 329 0.0 3.2 0.00 0.00 0.00 91 1010.5
20260509061327 12 329 0.0 3.2 0.00 0.00 0.00 91 1010.5
20260509060824 11 329 1.6 4.8 0.00 0.00 0.00 91 1010.5
20260509060324 11 329 1.6 4.8 0.00 0.00 0.00 91 1010.5
20260509055822 11 329 1.6 4.8 0.00 0.00 0.00 91 1010.5
20260509055324 11 329 1.6 4.8 0.00 0.00 0.00 91 1010.5
20260509054820 11 329 3.2 8.0 0.00 0.00 0.00 91 1010.5
20260509054326 11 329 3.2 8.0 0.00 0.00 0.00 91 1010.5
20260509053820 11 329 3.2 6.4 0.00 0.00 0.00 91 1010.5
20260509052817 11 329 0.0 3.2 0.00 0.00 0.00 91 1010.5
20260509052316 11 329 0.0 3.2 0.00 0.00 0.00 91 1010.5
20260509051814 11 329 1.6 6.4 0.00 0.00 0.00 91 1010.5
20260509051306 11 329 1.6 6.4 0.00 0.00 0.00 91 1010.4
20260509050808 11 329 1.6 6.4 0.00 0.00 0.00 90 1010.4